logo tempoitalia

Diretta Meteo Bainbridge, Stati Uniti (USA)lunedì 31 agosto ore 02:35

Mappa
Sereno 24 °C Sereno 24 Ore: T.min 22 T.max 34
Ponente Est/Nord-Est Km/h 9.3 Punto di rugiada: 0 °C Umidità: 20% Visibilità: 10 Km
Il sole sorge alle: 07:14 Il sole tramonta alle: 20:03
31 Agosto 2026 02:35 tempo osservato: Sereno Sereno 24 20 1018 vento: Nord E/NE 9.3
31 Agosto 2026 02:15 tempo osservato: Sereno Sereno 24 20 1018 vento: Nord E 7.4
31 Agosto 2026 01:55 tempo osservato: Sereno Sereno 24 20 1018 vento: Nord E/SE 7.4
31 Agosto 2026 01:35 tempo osservato: Sereno Sereno 24 20 1018 vento: Nord E 9.3
31 Agosto 2026 01:15 tempo osservato: Sereno Sereno 24 20 1018 vento: Nord E 9.3
31 Agosto 2026 00:55 tempo osservato: Sereno Sereno 24 20 1018 vento: Nord E/SE 9.3
31 Agosto 2026 00:35 tempo osservato: Sereno Sereno 24 20 1018 vento: Nord E 7.4
31 Agosto 2026 00:15 tempo osservato: Sereno Sereno 25 19 1018 vento: Nord E 9.3
30 Agosto 2026 23:55 tempo osservato: Sereno Sereno 25 19 1018 vento: Nord E 11.1
30 Agosto 2026 23:35 tempo osservato: Sereno Sereno 25 19 1018 vento: Nord E 11.1
30 Agosto 2026 23:15 tempo osservato: Sereno Sereno 25 100 1018 vento: Nord E 9.3
30 Agosto 2026 22:55 tempo osservato: Sereno Sereno 25 100 1018 vento: Nord E/NE 11.1
30 Agosto 2026 22:35 tempo osservato: Sereno Sereno 25 19 1018 vento: Nord E/NE 11.1
30 Agosto 2026 22:15 tempo osservato: Sereno Sereno 26 94 1018 vento: Nord E 7.4
30 Agosto 2026 21:55 tempo osservato: Sereno Sereno 26 100 1018 vento: Nord E/NE 9.3
30 Agosto 2026 21:35 tempo osservato: Sereno Sereno 26 100 1018 vento: Nord E/NE 9.3
30 Agosto 2026 21:15 tempo osservato: Sereno Sereno 26 100 1018 vento: Nord E 11.1
30 Agosto 2026 20:55 tempo osservato: Sereno Sereno 26 100 1018 vento: Nord E 9.3
30 Agosto 2026 20:35 tempo osservato: Sereno Sereno 26 94 1018 vento: Nord E 11.1
30 Agosto 2026 20:15 tempo osservato: Sereno Sereno 27 88 1018 vento: Nord E 9.3
30 Agosto 2026 19:55 tempo osservato: Sereno Sereno 27 88 1018 vento: Nord E 11.1
30 Agosto 2026 19:35 tempo osservato: Sereno Sereno 28 78 1017 vento: Nord E 11.1
30 Agosto 2026 19:15 tempo osservato: Sereno Sereno 29 74 1017 vento: Nord E 24
30 Agosto 2026 18:55 tempo osservato: Sereno Sereno 30 70 1017 vento: Nord E 20.3
30 Agosto 2026 18:35 tempo osservato: Sereno Sereno 31 70 1017 vento: Nord E 16.7
30 Agosto 2026 18:15 tempo osservato: Sereno Sereno 32 62 1017 vento: Nord E 16.7
30 Agosto 2026 17:55 tempo osservato: Nuvoloso Nuvoloso 32 55 1017 vento: Nord E 18.5
30 Agosto 2026 17:35 tempo osservato: Nuvoloso Nuvoloso 32 62 1017 vento: Nord E/NE 24
30 Agosto 2026 17:15 tempo osservato: Sereno Sereno 32 62 1017 vento: Nord E 14.8
30 Agosto 2026 16:55 tempo osservato: Nuvoloso Nuvoloso 31 70 1017 vento: Nord E 22.2
30 Agosto 2026 16:35 tempo osservato: Sereno Sereno 34 56 1017 vento: Nord E 13
30 Agosto 2026 16:15 tempo osservato: Nuvoloso Nuvoloso 33 59 1017 vento: Nord E/NE 16.7
30 Agosto 2026 15:55 tempo osservato: Molto Nuvoloso Molto Nuvoloso 33 59 1017 vento: Nord E/NE 16.7
30 Agosto 2026 15:35 tempo osservato: Nuvoloso Nuvoloso 34 59 1018 vento: Nord E/NE 16.7
30 Agosto 2026 15:15 tempo osservato: Sereno Sereno 33 55 1018 vento: Nord E 13
30 Agosto 2026 14:55 tempo osservato: Sereno Sereno 33 59 1018 vento: Nord E/NE 14.8
30 Agosto 2026 14:35 tempo osservato: Nuvoloso Nuvoloso 32 62 1018 vento: Nord E 16.7
30 Agosto 2026 14:15 tempo osservato: Sereno Sereno 33 62 1019 vento: Nord E/NE 14.8
30 Agosto 2026 13:55 tempo osservato: Sereno Sereno 33 59 1019 vento: Nord E/SE 11.1
30 Agosto 2026 13:35 tempo osservato: Nuvoloso Nuvoloso 33 62 1019 vento: Nord E 13
30 Agosto 2026 13:15 tempo osservato: Nuvoloso Nuvoloso 31 66 1019 vento: Nord E 14.8
30 Agosto 2026 12:55 tempo osservato: Molto Nuvoloso Molto Nuvoloso 31 66 1020 vento: Nord E 20.3
30 Agosto 2026 12:35 tempo osservato: Molto Nuvoloso Molto Nuvoloso 32 66 1020 vento: Nord E 18.5
30 Agosto 2026 12:15 tempo osservato: Molto Nuvoloso Molto Nuvoloso 32 62 1020 vento: Nord E 20.3
30 Agosto 2026 11:55 tempo osservato: Molto Nuvoloso Molto Nuvoloso 31 74 1020 vento: Nord E 20.3
30 Agosto 2026 11:35 tempo osservato: Molto Nuvoloso Molto Nuvoloso 31 74 1020 vento: Nord E 16.7
30 Agosto 2026 11:15 tempo osservato: Nuvoloso Nuvoloso 30 79 1020 vento: Nord E 7.4
30 Agosto 2026 10:55 tempo osservato: Nuvoloso Nuvoloso 29 83 1020 vento: Nord E/NE 14.8
30 Agosto 2026 10:35 tempo osservato: Nuvoloso Nuvoloso 29 83 1020 vento: Nord E/NE 16.7
30 Agosto 2026 10:15 tempo osservato: Sereno Sereno 28 88 1020 vento: Nord E 13
30 Agosto 2026 09:55 tempo osservato: Sereno Sereno 27 94 1020 vento: Nord E 14.8
30 Agosto 2026 09:35 tempo osservato: Sereno Sereno 27 94 1020 vento: Nord E 13
30 Agosto 2026 09:15 tempo osservato: Sereno Sereno 26 18 1020 vento: Nord E 11.1
30 Agosto 2026 08:55 tempo osservato: Sereno Sereno 25 19 1020 vento: Nord E 7.4
30 Agosto 2026 08:35 tempo osservato: Sereno Sereno 23 21 1019 vento: Nord E/NE 9.3
30 Agosto 2026 08:15 tempo osservato: Sereno Sereno 23 21 1019 vento: Nord E/NE 9.3
30 Agosto 2026 07:55 tempo osservato: Sereno Sereno 23 21 1019 vento: Nord E/NE 9.3
30 Agosto 2026 07:35 tempo osservato: Sereno Sereno 23 21 1019 vento: Nord E/NE 7.4
30 Agosto 2026 07:15 tempo osservato: Sereno Sereno 22 23 1019 vento: Nord E/NE 7.4
30 Agosto 2026 06:55 tempo osservato: Sereno Sereno 22 23 1019 vento: Nord E 7.4
30 Agosto 2026 06:35 tempo osservato: Sereno Sereno 22 23 1018 vento: Nord E 9.3
30 Agosto 2026 06:15 tempo osservato: Sereno Sereno 22 23 1018 vento: Nord E 7.4
30 Agosto 2026 05:55 tempo osservato: Sereno Sereno 23 21 1018 vento: Nord E/NE 9.3
30 Agosto 2026 05:35 tempo osservato: Sereno Sereno 23 21 1018 vento: Nord E/NE 7.4
30 Agosto 2026 05:15 tempo osservato: Sereno Sereno 23 21 1018 vento: Nord E 7.4
30 Agosto 2026 04:55 tempo osservato: Sereno Sereno 23 21 1018 vento: Nord E 7.4
30 Agosto 2026 04:35 tempo osservato: Sereno Sereno 23 21 1018 vento: Nord N 5.5
30 Agosto 2026 04:15 tempo osservato: Sereno Sereno 23 21 1018 vento: Nord E 9.3
30 Agosto 2026 03:55 tempo osservato: Sereno Sereno 23 21 1018 vento: Nord E 9.3
30 Agosto 2026 03:35 tempo osservato: Sereno Sereno 23 21 1018 vento: Nord E 7.4
30 Agosto 2026 03:15 tempo osservato: Sereno Sereno 23 21 1018 vento: Nord E/SE 7.4
30 Agosto 2026 02:55 tempo osservato: Sereno Sereno 23 21 1018 vento: Nord E/NE 9.3
30 Agosto 2026 02:35 tempo osservato: Sereno Sereno 23 21 1018 vento: Nord E 7.4